カタログに戻る

STARLINK-3344

運用中通信VLEO
NORAD 51110·PAYLOAD·🇺🇸 United States

打ち上げ Jan 19, 2022 から Cape Canaveral Space Force Station

Loading…

次のパス (今後24時間)

TLE

最新Source: CelesTrak SupGP

元期: Sep 14, 2026, 20:54 UTC

1 51110C 22005G   26257.87131944 -.00030205  00000+0 -89303-3 0  2570
2 51110  53.1583 151.9617 0001027  77.4128 352.9611 15.34383906    14

AllMySatでSTARLINK-3344をリアルタイム追跡

Download on the App Store